SCP
0 0 0 0 0 0 0 0 0 0 0 0 0 0 0 0 0 0 0 0 -0 -0 -0 -0 -0 -0 0 0 0 0 0 -0 -0 0 0 0 0 0 0 0 -0 -0 0 0 0 0 0 0 0
0 0 0 0 0 0 0 0 0 0 0 0 0 0 0 0 0 -0 -0 -0 -0 -0 -0 -0 -0 -0 -0 -0 -0 -0 0 -0 -0 -0 0 0 0 0 0 -0 -0 0 0 0 0 0 0 0 0
0 0 0 0 0 0 0 0 0 0 0 0 0 0 0 0 0 0 -0 -0 -0 -0 -0 -0 -0 -0 -0 -0 0 0 0 0 0 -0 0 0 0 0 0 0 0 -0 0 0 0 0 0 0 0
0 0 0 0 0 0 0 0 0 0 0 0 0 0 0 0 0 0 0 -0 -0 -0 -0 -0 -0 -0 -0 -0 -0 -0 0 -0 -0 0 0 0 0 0 0 0 0 0 0 -0 0 0 0 0 0
0 0 0 0 0 0 0 0 0 0 0 0 0 0 0 0 0 0 0 0 -0 0 0 0 -0 -0 -0 -0 -0 -0 -0 -0 0 0 0 0 0 0 0 0 0 0 -0 0 0 0 0 0 0
0 0 0 0 0 0 0 0 0 0 0 0 0 0 0 0 0 0 0 0 0 0 0 0 0 0 0 0 -0 0 0 -0 -0 0 0 0 0 0 0 0 -0 -0 0 0 0 0 0 0 0
0 0 0 0 0 0 0 0 0 0 0 0 0 0 0 0 0 0 0 0 0 0 0 0 0 0 0 0 0 0 0 0 0 0 0 0 0 0 -0 -0 0 0 0 0 0 0 0 0 0
0 0 0 0 0 0 0 0 0 0 0 0 0 0 0 0 0 0 0 0 0 0 0 0 0 0 0 0 0 0 0 0 0 0 0 0 0 0 0 0 0 0 0 0 0 0 0 0 0
0 0 0 0 0 0 0 0 0 0 0 0 0 0 0 0 0 0 0 0 0 0 0 0 0 0 0 0 0 0 0 0 0 0 0 0 0 0 0 0 0 0 0 0 0 0 0 0 0
0 0 0 0 0 0 0 0 0 0 0 0 0 0 0 0 0 0 0 0 0 0 0 0 0 0 0 0 0 0 0 0 0 0 0 0 0 0 0 0 0 0 0 0 0 0 0 0 0
0 0 0 0 0 0 0 0 0 0 0 0 0 0 0 0 0 0 0 0 0 0 0 0 0 0 0 0 0 0 0 0 0 0 0 0 0 0 0 0 0 0 0 0 0 0 0 0 0
0 0 0 0 0 0 0 0 0 0 0 0 0 0 0 0 0 0 0 0 0 0 0 0 0 0 0 0 0 0 0 0 0 0 0 0 0 0 0 0 0 0 0 0 0 0 0 0 0
0 0 0 0 0 0 0 0 0 0 0 0 0 0 0 0 0 0 0 0 0 0 0 0 0 0 0 0 0 0 0 0 0 0 0 0 0 0 0 0 0 0 0 0 0 0 0 0 0
0 0 0 0 0 0 0 0 0 0 0 0 0 0 0 0 0 0 0 0 0 0 0 0 0 0 0 0 0 0 0 0 0 0 0 0 0 0 0 0 0 0 0 0 0 0 0 0 0
0 0 0 0 0 0 0 0 0 0 0 0 0 0 0 0 0 0 0 0 0 0 0 0 0 0 0 0 0 0 0 0 0 0 0 0 0 0 0 0 0 0 0 0 0 0 0 0 0
0 0 0 0 0 0 0 0 0 0 0 0 0 0 0 0 0 0 0 0 0 0 0 0 0 0 0 0 0 0 0 0 0 0 0 0 0 0 0 0 0 0 0 0 0 0 0 0 0
0 0 0 0 0 0 0 0 0 0 0 0 0 0 0 -0 0 0 0 0 0 0 0 0 0 0 0 0 0 0 0 0 0 0 0 0 0 0 0 0 0 0 0 0 0 0 0 0 0
0 0 0 0 0 0 0 0 0 0 0 0 0 0 0 0 -0 0 0 0 0 0 0 0 0 0 0 0 0 0 0 0 0 0 0 0 0 0 0 0 0 0 0 0 0 0 0 0 0
0 0 0 0 0 0 0 0 0 0 0 0 0 0 0 0 0 0 0 0 0 0 0 0 0 0 0 0 0 0 0 0 0 0 0 0 0 0 0 0 0 0 0 0 0 0 0 0 0
0 0 0 0 0 0 0 0 0 0 0 0 0 0 0 0 0 0 0 0 0 0 0 0 0 0 0 0 0 0 0 0 0 0 0 0 0 0 0 0 0 0 0 0 0 0 0 0 0
0 0 0 0 0 0 -0 -0 0 0 0 0 0 0 0 0 0 0 0 0 0 0 0 0 0 0 0 0 0 0 0 0 0 0 0 0 0 0 0 0 0 0 0 0 0 0 0 0 0
0 0 0 0 0 0 0 0 0 0 0 0 0 0 0 0 0 0 0 0 0 0 0 0 0 0 0 0 0 0 0 0 0 0 0 0 0 0 0 0 0 0 0 0 0 0 0 0 0
0 0 0 0 0 0 0 0 0 0 0 0 0 0 0 0 0 0 0 0 0 0 0 0 0 0 0 0 0 0 0 0 0 0 0 0 0 0 0 0 0 0 0 0 0 0 0 0 0
-0 0 0 0 0 0 0 0 0 0 0 0 0 0 0 0 0 0 0 0 0 0 0 0 0 0 0 0 0 0 0 0 0 0 0 0 0 0 0 0 0 0 0 0 0 0 0 0 0
0 0 0 0 0 0 0 0 0 0 0 0 0 0 0 0 0 0 0 0 0 0 0 0 0 0 0 0 0 0 0 0 0 0 0 0 0 0 0 0 0 0 0 0 0 0 0 0 0
0 0 0 0 0 0 0 -0 0 0 -0 0 0 0 0 0 0 0 0 0 0 0 0 0 0 0 0 0 0 0 0 0 0 0 0 0 0 0 0 0 0 0 0 0 0 0 0 0 0
0 0 0 0 0 -0 -0 0 0 0 0 0 0 0 0 0 0 0 0 0 0 -0 0 0 0 0 0 0 0 0 0 0 0 0 0 0 0 0 0 0 0 0 0 0 0 0 0 0 0
0 0 0 0 -0 -0 -0 -0 -0 0 0 0 0 0 0 0 0 0 0 0 0 -0 -0 -0 0 0 0 0 0 0 0 0 0 0 0 0 0 0 0 0 0 0 0 0 0 0 0 0 0
0 0 0 0 0 -0 -0 -0 0 0 0 0 0 0 -0 -0 -0 -0 -0 -0 -0 -0 -0 -0 -0 0 0 0 0 0 0 0 0 0 0 0 0 0 0 0 0 0 0 0 0 0 0 0 0
0 0 0 0 0 0 0 0 0 0 0 0 -0 -0 -0 -0 -0 -0 -0 -0 -0 -0 -0 -0 -0 0 0 0 0 0 0 0 0 0 0 0 0 0 0 0 0 0 0 0 0 0 0 0 0
Wind_Speed_500mb
7 5 4 10 7 8 6 4 1 8 5 3 18 10 10 11 5 5 43 29 27 22 20 13 7 7 13 17 14 15 16 18 21 23 25 23 19 20 21 22 20 19 23 23 24 26 26 27 25
7 5 4 6 8 6 4 1 8 5 19 40 31 19 9 6 10 37 36 35 26 19 21 15 7 6 13 16 15 16 18 20 22 25 24 22 19 19 19 20 23 22 21 21 22 24 26 25 26
7 4 2 8 6 8 8 8 13 24 15 9 11 15 8 9 30 43 38 35 26 18 18 15 5 5 16 15 18 18 19 21 23 24 25 24 18 17 19 22 21 23 23 22 25 24 25 27 28
6 3 8 7 6 2 5 14 21 20 13 9 28 17 13 17 38 31 41 32 24 16 16 12 4 6 16 21 21 18 18 20 22 23 23 22 18 19 19 19 19 21 22 21 21 25 23 26 28
3 2 7 8 4 3 4 24 20 7 9 17 7 12 13 25 23 33 34 24 16 14 16 8 4 7 15 23 23 18 18 19 21 22 23 20 16 13 15 19 19 19 20 19 21 22 22 26 29
2 3 7 7 5 3 6 18 13 9 10 16 17 18 12 28 37 35 27 22 18 15 13 7 6 9 14 19 20 14 15 18 18 20 21 21 18 15 12 14 17 17 19 18 21 21 24 25 28
4 6 7 10 11 6 7 11 15 14 16 9 21 8 19 43 46 34 30 24 20 14 7 7 7 12 16 22 16 14 16 17 18 21 21 18 16 14 12 10 12 15 14 15 20 21 19 24 26
6 8 8 4 11 9 11 9 17 9 6 25 18 11 16 53 49 41 31 25 20 14 11 9 10 15 21 18 14 14 15 16 19 21 20 18 15 11 10 7 5 8 12 14 17 17 18 19 31
7 8 7 12 13 10 18 9 8 12 22 10 17 21 21 59 50 42 36 28 23 18 15 13 12 17 18 11 12 12 14 16 19 21 21 18 14 12 10 5 2 6 8 10 13 14 14 13 25
9 6 11 3 2 9 11 14 21 12 15 5 11 17 33 55 50 42 37 30 26 20 17 15 16 18 14 11 11 12 14 17 19 19 18 17 15 12 8 5 0 4 4 6 8 11 12 15 21
3 6 12 7 10 18 14 12 12 25 5 16 25 30 46 58 50 41 35 28 23 21 18 16 18 15 13 11 12 13 15 17 18 19 19 18 17 13 9 5 2 3 4 6 8 10 13 17 18
13 10 8 11 8 10 8 18 10 11 7 14 24 36 50 57 50 41 36 31 27 22 21 18 15 16 13 11 13 15 18 21 22 23 23 21 19 15 9 4 4 5 7 8 10 13 16 17 17
11 9 12 27 20 20 17 9 7 8 4 17 29 36 51 55 50 45 39 34 31 25 23 20 20 19 16 13 14 16 18 20 21 22 22 21 18 15 12 5 4 8 10 11 13 15 15 16 16
13 27 14 23 17 11 7 5 3 6 11 27 30 37 48 50 49 47 46 41 34 28 25 24 24 23 21 19 19 18 20 20 22 24 25 24 19 15 13 7 5 11 15 18 15 15 12 11 10
11 12 9 18 8 5 5 2 4 5 20 26 33 35 42 48 50 47 39 40 35 33 34 29 28 25 25 26 25 24 24 23 25 25 25 23 20 16 11 7 4 17 21 24 21 19 16 10 5
7 10 8 8 5 3 3 7 2 9 24 28 34 39 43 48 49 46 45 41 38 39 41 37 35 32 30 29 28 29 27 26 27 27 26 25 21 16 12 8 4 13 25 28 31 29 26 21 14
10 8 7 3 8 4 4 6 1 8 20 28 37 43 49 57 57 54 49 46 45 41 44 45 43 41 39 38 34 35 33 33 31 31 29 27 21 18 14 12 11 10 21 31 37 37 34 28 20
8 11 5 6 4 3 3 13 9 17 22 34 41 50 56 61 65 58 56 54 54 52 52 49 47 46 44 43 40 42 41 40 37 34 36 25 23 21 19 16 15 16 20 27 35 44 42 36 29
13 9 11 5 1 3 5 11 22 30 30 41 48 50 58 64 56 55 59 59 59 62 61 60 58 54 51 48 48 49 46 42 39 34 35 27 25 24 22 21 19 20 22 30 38 50 54 47 37
11 13 4 1 4 1 7 22 29 10 24 35 51 57 59 59 58 52 56 61 63 60 59 58 56 56 55 53 52 50 47 46 41 37 34 32 29 27 27 25 24 24 26 33 42 52 56 52 47
8 11 4 6 6 6 13 13 9 4 6 19 32 47 47 52 59 58 57 57 60 64 62 59 59 58 56 54 52 55 56 54 46 38 36 34 35 31 30 30 27 28 28 33 42 51 59 57 52
7 4 8 8 7 4 10 7 10 10 17 10 22 13 19 28 36 48 57 59 58 59 58 56 56 57 57 55 59 61 60 55 48 42 41 39 39 37 35 33 30 30 30 32 39 51 60 59 58
6 7 9 6 8 5 12 6 13 11 8 8 17 26 24 26 28 31 28 32 42 52 54 57 54 52 53 55 58 58 60 58 54 49 47 45 44 44 38 37 35 34 34 34 38 47 60 64 63
12 10 13 8 6 6 5 6 9 1 5 13 18 25 31 33 35 31 19 16 20 27 40 46 52 51 51 54 58 60 58 59 55 54 53 49 46 47 39 38 36 37 37 36 38 42 50 61 67
10 10 6 9 8 4 5 3 15 10 13 9 21 32 32 39 43 37 25 18 18 15 18 31 42 51 51 52 55 58 58 57 56 55 53 51 51 48 41 40 39 39 38 39 40 41 47 52 63
6 8 8 5 2 6 6 9 10 8 15 20 33 36 49 63 58 45 29 28 29 27 24 21 31 43 48 50 50 52 55 57 57 57 56 55 54 50 47 43 42 41 40 41 42 42 44 47 51
2 4 7 10 4 4 4 11 20 7 9 25 41 55 57 68 71 73 50 30 31 38 45 33 30 35 43 47 49 51 54 58 63 60 60 60 56 56 54 47 44 43 43 44 43 43 43 42 43
4 8 6 5 2 7 7 7 9 5 13 15 24 42 63 59 66 64 58 46 43 38 54 49 41 37 37 44 50 53 54 58 62 64 64 62 58 57 57 52 49 47 47 46 46 46 44 44 44
4 2 9 6 6 6 4 9 11 4 4 4 12 39 57 53 51 56 61 68 64 54 50 46 48 48 44 42 47 55 56 56 60 63 63 62 61 59 60 55 52 52 51 48 49 48 47 45 44
5 3 6 6 6 1 1 13 3 15 11 9 28 47 59 59 75 76 73 57 52 53 50 47 46 50 50 47 49 53 57 57 61 63 61 61 64 61 60 57 57 56 54 52 52 52 50 48 45
Wind_Direction_500mb
288 228 194 162 87 67 124 179 148 121 116 88 131 139 134 67 133 152 143 152 159 162 163 158 175 359 6 16 17 20 21 13 13 13 9 13 32 46 62 67 62 57 51 42 51 57 61 58 50
274 209 175 126 96 97 233 199 136 129 127 110 98 97 59 86 111 139 144 147 155 166 168 158 191 355 353 12 14 12 15 11 10 12 14 15 35 57 66 69 66 62 53 47 55 59 60 57 55
268 183 65 91 108 157 168 157 134 122 120 125 103 78 75 100 135 141 146 147 155 171 171 167 193 334 345 357 7 8 10 8 10 10 18 21 35 65 64 68 67 58 55 54 55 58 65 61 57
235 122 66 84 119 210 163 142 139 128 92 91 118 84 94 122 140 139 144 154 165 179 166 181 217 324 335 347 358 1 6 4 8 8 17 26 44 59 60 55 71 65 69 65 60 66 64 61 64
215 61 62 76 102 115 72 139 143 104 109 122 111 129 110 146 148 148 146 150 168 170 146 190 253 311 328 333 344 352 357 4 6 9 12 31 40 59 68 66 58 63 74 68 68 72 62 63 72
331 106 77 153 145 68 61 151 131 103 116 122 112 117 130 145 146 151 156 159 154 157 156 202 251 297 308 321 328 340 352 359 5 11 14 19 27 28 42 63 63 64 79 70 64 65 66 67 75
213 92 159 125 146 129 145 132 133 128 124 123 131 102 150 156 159 163 163 161 159 165 192 217 258 292 303 323 328 340 352 359 6 9 13 17 19 19 15 33 74 69 76 59 61 64 69 74 85
219 94 105 161 184 164 144 105 125 114 142 142 152 153 172 171 166 166 170 169 179 189 210 234 267 294 314 321 328 338 352 1 4 10 10 11 9 4 4 20 44 62 79 59 69 74 72 81 90
182 73 151 183 173 159 149 119 114 120 138 156 174 165 177 169 168 172 178 186 193 205 219 234 259 293 310 318 325 339 350 358 3 3 0 2 0 356 353 3 71 84 75 69 80 84 82 85 108
78 113 176 115 89 148 130 124 140 140 140 120 173 157 171 171 170 179 187 194 203 214 221 240 267 296 315 315 323 338 346 354 355 357 360 3 2 356 347 357 138 117 112 92 105 98 90 90 102
90 146 168 67 74 133 122 111 138 139 202 193 188 173 173 176 177 187 196 202 208 215 225 239 267 284 313 313 320 328 336 341 345 351 354 356 355 352 339 321 222 171 165 145 138 122 120 113 110
99 39 134 103 93 114 105 130 119 169 157 184 187 180 181 185 185 195 198 202 208 217 222 235 254 284 298 300 308 321 331 336 340 345 346 348 346 344 343 319 213 187 184 175 155 142 132 127 124
83 147 78 94 96 98 128 104 150 188 184 169 177 181 188 193 192 195 203 210 214 218 225 235 251 274 285 297 304 314 325 328 329 334 337 338 336 333 331 338 180 176 176 178 163 152 148 141 134
119 107 106 89 83 82 115 110 123 198 169 162 179 192 193 202 202 203 206 216 218 223 231 238 246 263 279 292 298 308 313 318 322 324 329 331 329 321 310 312 202 175 166 171 178 167 176 165 148
145 95 85 48 48 56 78 42 249 194 176 178 187 198 205 213 219 215 216 226 229 233 242 242 248 259 271 283 288 294 302 308 313 316 319 322 318 314 302 296 220 186 173 188 196 194 198 208 198
77 49 91 354 20 11 154 250 359 197 188 204 205 207 215 217 223 229 226 227 244 237 244 242 249 254 262 279 284 287 290 299 307 310 312 314 307 301 287 274 254 189 177 194 204 210 209 213 211
10 126 105 95 32 352 63 244 187 210 206 221 220 224 226 227 225 225 229 234 235 239 246 251 252 256 261 266 271 279 284 291 297 303 309 304 293 285 275 262 249 227 195 195 210 217 221 226 214
154 120 66 148 328 37 263 258 243 244 222 234 236 235 234 237 230 232 233 233 235 241 244 245 248 255 260 262 265 271 276 282 289 294 306 302 288 280 269 258 248 235 224 204 211 218 220 218 218
110 97 123 169 268 231 282 289 277 257 226 242 243 242 244 245 246 239 240 242 242 240 242 246 246 252 254 258 263 270 273 276 282 289 297 300 294 283 271 261 253 239 227 214 214 216 220 212 213
86 112 72 133 51 106 354 285 272 236 238 246 253 252 250 255 256 249 245 244 247 249 250 250 255 256 257 257 261 263 264 268 270 274 285 298 304 288 276 265 258 247 232 220 216 221 219 220 215
41 110 117 81 12 45 322 305 332 357 309 283 271 268 269 268 268 268 261 255 253 252 253 256 257 260 260 259 254 256 255 257 261 267 276 284 294 293 272 266 261 251 238 228 223 225 229 232 221
83 108 94 73 57 325 7 282 324 347 328 329 6 337 303 301 294 280 267 261 259 261 260 258 257 258 261 258 256 256 259 260 268 271 275 279 284 295 271 265 260 254 245 236 228 227 226 230 232
122 87 76 68 79 53 6 62 277 2 4 9 32 15 1 349 334 323 299 279 266 261 262 259 257 256 259 258 257 257 257 257 260 266 272 278 284 290 276 265 262 257 249 240 233 229 228 230 235
152 71 54 57 52 41 317 103 292 266 9 311 316 17 5 5 0 356 346 330 304 281 262 256 254 257 258 258 257 257 257 258 262 266 272 275 281 286 281 269 266 263 255 247 237 233 234 233 237
62 59 3 6 17 201 162 63 249 272 292 268 320 358 30 20 11 11 16 24 14 344 295 262 257 256 258 260 260 261 261 262 266 269 272 275 283 283 283 274 266 265 258 250 244 238 239 238 236
68 127 135 227 294 278 119 239 245 160 352 59 63 43 42 37 24 18 29 49 41 27 359 307 271 264 262 264 266 266 266 267 265 268 270 271 275 278 278 274 270 269 261 254 251 249 244 241 241
176 81 135 108 78 52 240 283 305 94 71 42 46 60 40 20 20 23 24 41 33 23 6 334 306 284 272 270 270 271 271 271 273 272 269 267 269 272 275 273 270 267 265 260 253 248 247 245 244
84 148 76 15 64 290 285 272 242 356 36 5 32 27 10 9 4 7 6 356 345 348 353 343 325 312 293 277 272 272 272 273 274 273 270 269 269 271 272 270 269 263 260 254 252 249 243 244 245
76 76 54 105 163 214 298 264 213 202 166 67 3 352 359 6 10 1 351 342 337 336 331 331 327 319 311 297 283 275 275 276 274 273 273 272 270 267 266 267 265 261 261 255 251 248 244 243 244
71 161 144 146 238 280 144 258 106 199 174 13 343 351 355 353 341 338 335 342 346 341 335 328 318 311 313 310 297 284 277 275 274 276 276 273 270 268 266 264 260 257 258 255 251 247 247 248 244
Wind_Speed_850mb
7 5 4 10 7 8 6 4 1 8 5 3 18 10 10 11 5 5 43 29 27 22 20 13 7 7 13 17 14 15 16 18 21 23 25 23 19 20 21 22 20 19 23 23 24 26 26 27 25
7 5 4 6 8 6 4 1 8 5 19 40 31 19 9 6 10 37 36 35 26 19 21 15 7 6 13 16 15 16 18 20 22 25 24 22 19 19 19 20 23 22 21 21 22 24 26 25 26
7 4 2 8 6 8 8 8 13 24 15 9 11 15 8 9 30 43 38 35 26 18 18 15 5 5 16 15 18 18 19 21 23 24 25 24 18 17 19 22 21 23 23 22 25 24 25 27 28
6 3 8 7 6 2 5 14 21 20 13 9 28 17 13 17 38 31 41 32 24 16 16 12 4 6 16 21 21 18 18 20 22 23 23 22 18 19 19 19 19 21 22 21 21 25 23 26 28
3 2 7 8 4 3 4 24 20 7 9 17 7 12 13 25 23 33 34 24 16 14 16 8 4 7 15 23 23 18 18 19 21 22 23 20 16 13 15 19 19 19 20 19 21 22 22 26 29
2 3 7 7 5 3 6 18 13 9 10 16 17 18 12 28 37 35 27 22 18 15 13 7 6 9 14 19 20 14 15 18 18 20 21 21 18 15 12 14 17 17 19 18 21 21 24 25 28
4 6 7 10 11 6 7 11 15 14 16 9 21 8 19 43 46 34 30 24 20 14 7 7 7 12 16 22 16 14 16 17 18 21 21 18 16 14 12 10 12 15 14 15 20 21 19 24 26
6 8 8 4 11 9 11 9 17 9 6 25 18 11 16 53 49 41 31 25 20 14 11 9 10 15 21 18 14 14 15 16 19 21 20 18 15 11 10 7 5 8 12 14 17 17 18 19 31
7 8 7 12 13 10 18 9 8 12 22 10 17 21 21 59 50 42 36 28 23 18 15 13 12 17 18 11 12 12 14 16 19 21 21 18 14 12 10 5 2 6 8 10 13 14 14 13 25
9 6 11 3 2 9 11 14 21 12 15 5 11 17 33 55 50 42 37 30 26 20 17 15 16 18 14 11 11 12 14 17 19 19 18 17 15 12 8 5 0 4 4 6 8 11 12 15 21
3 6 12 7 10 18 14 12 12 25 5 16 25 30 46 58 50 41 35 28 23 21 18 16 18 15 13 11 12 13 15 17 18 19 19 18 17 13 9 5 2 3 4 6 8 10 13 17 18
13 10 8 11 8 10 8 18 10 11 7 14 24 36 50 57 50 41 36 31 27 22 21 18 15 16 13 11 13 15 18 21 22 23 23 21 19 15 9 4 4 5 7 8 10 13 16 17 17
11 9 12 27 20 20 17 9 7 8 4 17 29 36 51 55 50 45 39 34 31 25 23 20 20 19 16 13 14 16 18 20 21 22 22 21 18 15 12 5 4 8 10 11 13 15 15 16 16
13 27 14 23 17 11 7 5 3 6 11 27 30 37 48 50 49 47 46 41 34 28 25 24 24 23 21 19 19 18 20 20 22 24 25 24 19 15 13 7 5 11 15 18 15 15 12 11 10
11 12 9 18 8 5 5 2 4 5 20 26 33 35 42 48 50 47 39 40 35 33 34 29 28 25 25 26 25 24 24 23 25 25 25 23 20 16 11 7 4 17 21 24 21 19 16 10 5
7 10 8 8 5 3 3 7 2 9 24 28 34 39 43 48 49 46 45 41 38 39 41 37 35 32 30 29 28 29 27 26 27 27 26 25 21 16 12 8 4 13 25 28 31 29 26 21 14
10 8 7 3 8 4 4 6 1 8 20 28 37 43 49 57 57 54 49 46 45 41 44 45 43 41 39 38 34 35 33 33 31 31 29 27 21 18 14 12 11 10 21 31 37 37 34 28 20
8 11 5 6 4 3 3 13 9 17 22 34 41 50 56 61 65 58 56 54 54 52 52 49 47 46 44 43 40 42 41 40 37 34 36 25 23 21 19 16 15 16 20 27 35 44 42 36 29
13 9 11 5 1 3 5 11 22 30 30 41 48 50 58 64 56 55 59 59 59 62 61 60 58 54 51 48 48 49 46 42 39 34 35 27 25 24 22 21 19 20 22 30 38 50 54 47 37
11 13 4 1 4 1 7 22 29 10 24 35 51 57 59 59 58 52 56 61 63 60 59 58 56 56 55 53 52 50 47 46 41 37 34 32 29 27 27 25 24 24 26 33 42 52 56 52 47
8 11 4 6 6 6 13 13 9 4 6 19 32 47 47 52 59 58 57 57 60 64 62 59 59 58 56 54 52 55 56 54 46 38 36 34 35 31 30 30 27 28 28 33 42 51 59 57 52
7 4 8 8 7 4 10 7 10 10 17 10 22 13 19 28 36 48 57 59 58 59 58 56 56 57 57 55 59 61 60 55 48 42 41 39 39 37 35 33 30 30 30 32 39 51 60 59 58
6 7 9 6 8 5 12 6 13 11 8 8 17 26 24 26 28 31 28 32 42 52 54 57 54 52 53 55 58 58 60 58 54 49 47 45 44 44 38 37 35 34 34 34 38 47 60 64 63
12 10 13 8 6 6 5 6 9 1 5 13 18 25 31 33 35 31 19 16 20 27 40 46 52 51 51 54 58 60 58 59 55 54 53 49 46 47 39 38 36 37 37 36 38 42 50 61 67
10 10 6 9 8 4 5 3 15 10 13 9 21 32 32 39 43 37 25 18 18 15 18 31 42 51 51 52 55 58 58 57 56 55 53 51 51 48 41 40 39 39 38 39 40 41 47 52 63
6 8 8 5 2 6 6 9 10 8 15 20 33 36 49 63 58 45 29 28 29 27 24 21 31 43 48 50 50 52 55 57 57 57 56 55 54 50 47 43 42 41 40 41 42 42 44 47 51
2 4 7 10 4 4 4 11 20 7 9 25 41 55 57 68 71 73 50 30 31 38 45 33 30 35 43 47 49 51 54 58 63 60 60 60 56 56 54 47 44 43 43 44 43 43 43 42 43
4 8 6 5 2 7 7 7 9 5 13 15 24 42 63 59 66 64 58 46 43 38 54 49 41 37 37 44 50 53 54 58 62 64 64 62 58 57 57 52 49 47 47 46 46 46 44 44 44
4 2 9 6 6 6 4 9 11 4 4 4 12 39 57 53 51 56 61 68 64 54 50 46 48 48 44 42 47 55 56 56 60 63 63 62 61 59 60 55 52 52 51 48 49 48 47 45 44
5 3 6 6 6 1 1 13 3 15 11 9 28 47 59 59 75 76 73 57 52 53 50 47 46 50 50 47 49 53 57 57 61 63 61 61 64 61 60 57 57 56 54 52 52 52 50 48 45
Wind_Direction_850mb
288 228 194 162 87 67 124 179 148 121 116 88 131 139 134 67 133 152 143 152 159 162 163 158 175 359 6 16 17 20 21 13 13 13 9 13 32 46 62 67 62 57 51 42 51 57 61 58 50
274 209 175 126 96 97 233 199 136 129 127 110 98 97 59 86 111 139 144 147 155 166 168 158 191 355 353 12 14 12 15 11 10 12 14 15 35 57 66 69 66 62 53 47 55 59 60 57 55
268 183 65 91 108 157 168 157 134 122 120 125 103 78 75 100 135 141 146 147 155 171 171 167 193 334 345 357 7 8 10 8 10 10 18 21 35 65 64 68 67 58 55 54 55 58 65 61 57
235 122 66 84 119 210 163 142 139 128 92 91 118 84 94 122 140 139 144 154 165 179 166 181 217 324 335 347 358 1 6 4 8 8 17 26 44 59 60 55 71 65 69 65 60 66 64 61 64
215 61 62 76 102 115 72 139 143 104 109 122 111 129 110 146 148 148 146 150 168 170 146 190 253 311 328 333 344 352 357 4 6 9 12 31 40 59 68 66 58 63 74 68 68 72 62 63 72
331 106 77 153 145 68 61 151 131 103 116 122 112 117 130 145 146 151 156 159 154 157 156 202 251 297 308 321 328 340 352 359 5 11 14 19 27 28 42 63 63 64 79 70 64 65 66 67 75
213 92 159 125 146 129 145 132 133 128 124 123 131 102 150 156 159 163 163 161 159 165 192 217 258 292 303 323 328 340 352 359 6 9 13 17 19 19 15 33 74 69 76 59 61 64 69 74 85
219 94 105 161 184 164 144 105 125 114 142 142 152 153 172 171 166 166 170 169 179 189 210 234 267 294 314 321 328 338 352 1 4 10 10 11 9 4 4 20 44 62 79 59 69 74 72 81 90
182 73 151 183 173 159 149 119 114 120 138 156 174 165 177 169 168 172 178 186 193 205 219 234 259 293 310 318 325 339 350 358 3 3 0 2 0 356 353 3 71 84 75 69 80 84 82 85 108
78 113 176 115 89 148 130 124 140 140 140 120 173 157 171 171 170 179 187 194 203 214 221 240 267 296 315 315 323 338 346 354 355 357 360 3 2 356 347 357 138 117 112 92 105 98 90 90 102
90 146 168 67 74 133 122 111 138 139 202 193 188 173 173 176 177 187 196 202 208 215 225 239 267 284 313 313 320 328 336 341 345 351 354 356 355 352 339 321 222 171 165 145 138 122 120 113 110
99 39 134 103 93 114 105 130 119 169 157 184 187 180 181 185 185 195 198 202 208 217 222 235 254 284 298 300 308 321 331 336 340 345 346 348 346 344 343 319 213 187 184 175 155 142 132 127 124
83 147 78 94 96 98 128 104 150 188 184 169 177 181 188 193 192 195 203 210 214 218 225 235 251 274 285 297 304 314 325 328 329 334 337 338 336 333 331 338 180 176 176 178 163 152 148 141 134
119 107 106 89 83 82 115 110 123 198 169 162 179 192 193 202 202 203 206 216 218 223 231 238 246 263 279 292 298 308 313 318 322 324 329 331 329 321 310 312 202 175 166 171 178 167 176 165 148
145 95 85 48 48 56 78 42 249 194 176 178 187 198 205 213 219 215 216 226 229 233 242 242 248 259 271 283 288 294 302 308 313 316 319 322 318 314 302 296 220 186 173 188 196 194 198 208 198
77 49 91 354 20 11 154 250 359 197 188 204 205 207 215 217 223 229 226 227 244 237 244 242 249 254 262 279 284 287 290 299 307 310 312 314 307 301 287 274 254 189 177 194 204 210 209 213 211
10 126 105 95 32 352 63 244 187 210 206 221 220 224 226 227 225 225 229 234 235 239 246 251 252 256 261 266 271 279 284 291 297 303 309 304 293 285 275 262 249 227 195 195 210 217 221 226 214
154 120 66 148 328 37 263 258 243 244 222 234 236 235 234 237 230 232 233 233 235 241 244 245 248 255 260 262 265 271 276 282 289 294 306 302 288 280 269 258 248 235 224 204 211 218 220 218 218
110 97 123 169 268 231 282 289 277 257 226 242 243 242 244 245 246 239 240 242 242 240 242 246 246 252 254 258 263 270 273 276 282 289 297 300 294 283 271 261 253 239 227 214 214 216 220 212 213
86 112 72 133 51 106 354 285 272 236 238 246 253 252 250 255 256 249 245 244 247 249 250 250 255 256 257 257 261 263 264 268 270 274 285 298 304 288 276 265 258 247 232 220 216 221 219 220 215
41 110 117 81 12 45 322 305 332 357 309 283 271 268 269 268 268 268 261 255 253 252 253 256 257 260 260 259 254 256 255 257 261 267 276 284 294 293 272 266 261 251 238 228 223 225 229 232 221
83 108 94 73 57 325 7 282 324 347 328 329 6 337 303 301 294 280 267 261 259 261 260 258 257 258 261 258 256 256 259 260 268 271 275 279 284 295 271 265 260 254 245 236 228 227 226 230 232
122 87 76 68 79 53 6 62 277 2 4 9 32 15 1 349 334 323 299 279 266 261 262 259 257 256 259 258 257 257 257 257 260 266 272 278 284 290 276 265 262 257 249 240 233 229 228 230 235
152 71 54 57 52 41 317 103 292 266 9 311 316 17 5 5 0 356 346 330 304 281 262 256 254 257 258 258 257 257 257 258 262 266 272 275 281 286 281 269 266 263 255 247 237 233 234 233 237
62 59 3 6 17 201 162 63 249 272 292 268 320 358 30 20 11 11 16 24 14 344 295 262 257 256 258 260 260 261 261 262 266 269 272 275 283 283 283 274 266 265 258 250 244 238 239 238 236
68 127 135 227 294 278 119 239 245 160 352 59 63 43 42 37 24 18 29 49 41 27 359 307 271 264 262 264 266 266 266 267 265 268 270 271 275 278 278 274 270 269 261 254 251 249 244 241 241
176 81 135 108 78 52 240 283 305 94 71 42 46 60 40 20 20 23 24 41 33 23 6 334 306 284 272 270 270 271 271 271 273 272 269 267 269 272 275 273 270 267 265 260 253 248 247 245 244
84 148 76 15 64 290 285 272 242 356 36 5 32 27 10 9 4 7 6 356 345 348 353 343 325 312 293 277 272 272 272 273 274 273 270 269 269 271 272 270 269 263 260 254 252 249 243 244 245
76 76 54 105 163 214 298 264 213 202 166 67 3 352 359 6 10 1 351 342 337 336 331 331 327 319 311 297 283 275 275 276 274 273 273 272 270 267 266 267 265 261 261 255 251 248 244 243 244
71 161 144 146 238 280 144 258 106 199 174 13 343 351 355 353 341 338 335 342 346 341 335 328 318 311 313 310 297 284 277 275 274 276 276 273 270 268 266 264 260 257 258 255 251 247 247 248 244